Concordia, KS

9:15 PM CST on November 17, 2019 (GMT -0600)
Blosser Municipal

Weather History for KCNK - September, 2019

Change the Weather History Date:

Thursday, September 26, 2019

  Actual Average Record
Temperature  
Mean Temperature 67 °F 63 °F  
Max Temperature 79 °F 75 °F 94 °F (1897)
Min Temperature 54 °F 51 °F 31 °F (1984)
Degree Days  
Heating Degree Days 0 4  
Month to date heating degree days 0 50  
Since 1 July heating degree days 0 53  
Cooling Degree Days 2 3  
Month to date cooling degree days 331 150  
Year to date cooling degree days 1608 1316  
Growing Degree Days 16 (Base 50)    
Moisture  
Dew Point 51 °F    
Average Humidity 60    
Maximum Humidity 86    
Minimum Humidity 33    
Precipitation  
Precipitation 0.00 in 0.09 in 1.56 in (1973)
Month to date precipitation 2.02 2.55  
Year to date precipitation 30.86 23.65  
Snow  
Snow 0.00 in 0.00 in T in (1926)
Month to date snowfall 0.0 0.0  
Year to date snowfall 32.3 13.7  
Since 1 July snowfall 0.0 0.0  
Snow Depth 0.00 in    
Sea Level Pressure  
Sea Level Pressure 29.90 in    
Wind  
Wind Speed 9 mph (SE)    
Max Wind Speed 21 mph    
Max Gust Speed 28 mph    
Visibility 10 miles    
Events      
T = Trace of Precipitation, MM = Missing Value Source: NWS Daily Summary

Daily Weather History Graph

Daily Weather History Graph

Search for Another Location

Airport or City:

Astronomy

Sep. 26, 2019 Rise Set
Actual Time 7:21 AM CDT 7:21 PM CDT
Civil Twilight 6:54 AM CDT 7:48 PM CDT
Nautical Twilight 6:23 AM CDT 8:19 PM CDT
Astronomical Twilight 5:51 AM CDT 8:51 PM CDT
Moon 4:31 AM CDT (9/26) 6:34 PM CDT (9/26)
Length of Visible Light 12h 53m
Length of Day
11h 59m
Waning Crescent, 6% of the Moon is Illuminated
Sep 26
Waning Crescent
Sep 28
New
Oct 5
First Quarter
Oct 13
Full
Oct 21
Last Quarter

Hourly Weather History & Observations

Time (CDT) Temp. Dew Point Humidity Pressure Visibility Wind Dir Wind Speed Gust Speed Precip Events Conditions
12:55 AM 59.0 °F 46.9 °F 64% 30.00 in 10.0 mi ENE 3.5 mph - N/A   Clear
1:55 AM 55.9 °F 46.9 °F 72% 30.00 in 10.0 mi East 3.5 mph - N/A   Partly Cloudy
2:55 AM 55.9 °F 46.9 °F 72% 30.00 in 10.0 mi Calm Calm - N/A   Clear
3:55 AM 55.9 °F 50.0 °F 80% 30.00 in 10.0 mi Calm Calm - N/A   Mostly Cloudy
4:55 AM 57.0 °F 50.0 °F 77% 30.01 in 10.0 mi SE 3.5 mph - N/A   Overcast
5:55 AM 57.0 °F 50.0 °F 77% 30.02 in 10.0 mi Calm Calm - N/A   Overcast
6:55 AM 55.0 °F 52.0 °F 89% 30.04 in 10.0 mi Calm Calm - N/A   Mostly Cloudy
7:55 AM 55.0 °F 50.0 °F 83% 30.03 in 10.0 mi NNE 3.5 mph - N/A   Clear
8:55 AM 59.0 °F 51.1 °F 75% 30.04 in 10.0 mi NNE 5.8 mph - N/A   Overcast
9:55 AM 61.0 °F 51.1 °F 70% 30.04 in 10.0 mi ESE 6.9 mph - N/A   Overcast
10:55 AM 66.9 °F 46.9 °F 49% 30.01 in 10.0 mi SE 13.8 mph - N/A   Overcast
11:55 AM 71.1 °F 48.0 °F 44% 29.99 in 10.0 mi SE 13.8 mph - N/A   Mostly Cloudy
12:55 PM 73.9 °F 46.0 °F 37% 29.95 in 10.0 mi SSE 13.8 mph - N/A   Mostly Cloudy
1:55 PM 77.0 °F 46.9 °F 34% 29.90 in 10.0 mi SSE 16.1 mph 23.0 mph N/A   Mostly Cloudy
2:55 PM 77.0 °F 46.9 °F 34% 29.86 in 10.0 mi South 16.1 mph - N/A   Overcast
3:55 PM 75.0 °F 48.0 °F 38% 29.83 in 10.0 mi SSE 17.3 mph 24.2 mph N/A   Overcast
4:55 PM 75.0 °F 48.0 °F 38% 29.80 in 10.0 mi South 13.8 mph - N/A   Overcast
5:55 PM 73.9 °F 51.1 °F 45% 29.77 in 10.0 mi SSE 10.4 mph - N/A   Overcast
6:55 PM 73.0 °F 54.0 °F 51% 29.75 in 10.0 mi SSE 9.2 mph - N/A   Overcast
7:55 PM 72.0 °F 55.9 °F 57% 29.74 in 10.0 mi South 10.4 mph - N/A   Overcast
8:55 PM 72.0 °F 62.1 °F 71% 29.73 in 10.0 mi SSE 12.7 mph - N/A   Overcast
9:55 PM 71.1 °F 63.0 °F 75% 29.71 in 10.0 mi South 8.1 mph - N/A   Mostly Cloudy
10:55 PM 70.0 °F 64.0 °F 81% 29.70 in 10.0 mi South 6.9 mph - N/A   Overcast
11:55 PM 72.0 °F 64.0 °F 76% 29.67 in 10.0 mi South 6.9 mph - N/A   Overcast